Regional Weather Roundup
Issued by NWS

Home | Current Version | Previous Version | Text Only | Print | Product List | Glossary On
Versions: 1 2 3 4 5 6 7 8 9 10 11 12 13 14 15 16 17 18 19 20 21 22 23 24 25 26 27 28 29 30 31 32 33 34 35 36 37 38 39 40 41 42 43 44 45 46 47 48 49 50
000
ASUS43 KMKX 190824
RWRWI

WISCONSIN REGIONAL WEATHER ROUNDUP
NATIONAL WEATHER SERVICE MILWAUKEE/SULLIVAN WI
300 AM CDT SUN APR 19 2015

NOTE: "FAIR" INDICATES FEW OR NO CLOUDS BELOW 12,000 FEET WITH NO
SIGNIFICANT WEATHER AND/OR OBSTRUCTIONS TO VISIBILITY.

WIZ001-002-006>008-014>016-023>028-190900-
NORTHWEST WISCONSIN

CITY           SKY/WX    TMP DP  RH WIND       PRES   REMARKS
SUPERIOR ARPT  LGT RAIN  37  35  93 NE13G18   29.95F WCI  28
ASHLAND        LGT RAIN  39  36  89 CALM      29.97S
HAYWARD        LGT RAIN  46  30  53 SE5       29.93F
SIREN          CLOUDY    45  36  71 SE9G17    29.84F
CUMBERLAND     LGT RAIN  43  32  65 E13       29.85F
RICE LAKE      LGT RAIN  44  35  70 E13       29.89F
CHETEK         LGT RAIN  45  36  71 E10G17    29.89F
LADYSMITH      DRIZZLE   48  33  57 S3        29.97F
EAU CLAIRE     CLOUDY    46  34  62 E10       29.87F
MENOMONIE      LGT RAIN  47  36  66 E13       29.87F
NEW RICHMOND   CLOUDY    46  35  64 E14       29.81F
OSCEOLA        CLOUDY    46  38  73 E14       29.84F
$$

WIZ003>005-009-010-017-018-190900-
NORTH CENTRAL WISCONSIN

CITY           SKY/WX    TMP DP  RH WIND       PRES   REMARKS
MANITOWISH WTR MOCLDY    46  27  48 SE8       29.94F
ARBOR VITAE    HAZE      45  27  49 SE10G18   29.95F VSB 3/4
WOODRUFF       HAZE      45  27  49 SE10G18   29.95F VSB 3/4
RHINELANDER    FAIR      43  26  51 E10       29.98F
EAGLE RIVER    MOCLDY    41  25  53 SE12G20   29.98F
LAND O LAKES   CLOUDY    42  26  54 SE8G16    29.99F
PHILLIPS       CLOUDY    48  23  37 S6        29.96R
TOMAHAWK       MOCLDY    46  24  41 E8        29.95F
MEDFORD        LGT RAIN  45  29  54 S8        29.96R
MERRILL        MOCLDY    46  26  44 E9        29.95F
$$

WIZ029-030-035-036-043>047-190900-
CENTRAL WISCONSIN

CITY           SKY/WX    TMP DP  RH WIND       PRES   REMARKS
WAUSAU         MOCLDY    46  24  42 E13G20    29.94F
MOSINEE        MOCLDY    45  23  42 E12G17    29.95F
MARSHFIELD     CLOUDY    48  27  44 S7        29.95S
STEVENS POINT  MOCLDY    45  24  42 E12       29.95F
WAUPACA        MOCLDY    48  27  43 NE3       29.98F
WAUTOMA        CLOUDY    45  30  55 NE6       29.95F
WISC RAPIDS    MOCLDY    48  24  39 E8        29.94F
CAMP DOUGLAS   CLOUDY    46  37  69 NE5       29.91F
$$

WIZ011>013-019>022-031-037>040-048>050-190900-
NORTHEAST WISCONSIN

CITY           SKY/WX    TMP DP  RH WIND       PRES   REMARKS
ANTIGO         MOCLDY    40  28  61 E14       29.98F WCI  33
SHAWANO        PTCLDY    44  32  62 E8        30.01F
OCONTO         PTCLDY    40  31  70 E3        30.03S
STURGEON BAY   PTCLDY    45  25  45 SE13      30.05S
GREEN BAY      PTCLDY    48  22  35 E10       30.01F
MANITOWOC      PTCLDY    42  29  59 SE9       30.02F
APPLETON       MOCLDY    46  21  36 E9G18     29.98F
CLINTONVILLE   PTCLDY    43  30  61 E6        30.00S
OSHKOSH        MOCLDY    50  25  37 SE13      29.96F
$$

WIZ032>034-041-042-053>061-190900-
SOUTHWEST WISCONSIN

CITY           SKY/WX    TMP DP  RH WIND       PRES   REMARKS
LA CROSSE      CLOUDY    55  31  39 E7        29.86F
SPARTA         CLOUDY    45  37  73 E7        29.89F
VIROQUA        CLOUDY    49  32  51 E9        29.87F
BOSCOBEL       MOCLDY    53  32  44 NE6       29.87F
PRAIRIE DU CHI CLOUDY    55  32  41 E6        29.85F
PLATTEVILLE    CLOUDY    52  35  52 E15       29.86F
$$

WIZ056-057-062-063-064-067-068-190900-
SOUTH CENTRAL WISCONSIN

CITY           SKY/WX    TMP DP  RH WIND       PRES   REMARKS
REEDSBURG      CLOUDY    50  30  46 E5        29.90F
BARABOO/DELLS  CLOUDY    48  28  45 NE9       29.91F
LONE ROCK      MOCLDY    53  31  42 E13       29.88F
MINERAL POINT  MOCLDY    54  32  43 E9G18     29.87F
MADISON        CLOUDY    50  31  48 E9        29.91F
MIDDLETON      CLOUDY    51  30  45 E5        29.91F
WATERTOWN      CLOUDY    50  31  48 E12       29.92F
MONROE         MOCLDY    50  34  53 E5        29.89F
JANESVILLE     CLOUDY    50  32  50 E6        29.90F
$$

WIZ051-052-058>065-066-070>072-190900-
SOUTHEAST WISCONSIN

CITY           SKY/WX    TMP DP  RH WIND       PRES   REMARKS
MILWAUKEE      CLOUDY    47  29  49 E20       29.97F
WAUKESHA       CLOUDY    45  30  57 E8        29.97F
MILWAUKEE/TIMM MOCLDY    48  25  40 E8        29.98F
RACINE         CLOUDY    46  32  58 E12       29.98F
BURLINGTON     CLOUDY    46  32  57 E6        29.94F
KENOSHA        CLOUDY    47  33  58 E9        29.96F
FOND DU LAC    MOCLDY    50  23  34 SE16      29.95F
SHEBOYGAN      MOCLDY    46  27  47 SE9       30.01F
WEST BEND      MOCLDY    45  27  49 E9        29.98F
JUNEAU         CLOUDY    49  28  43 E16       29.95F
$$

LSZ147-162-190900-
LAKE SUPERIOR

STATION/POSITION TIME  TEMP    WIND        PRES    WAVE
                       AIR SEA DIR/SP/G            HT/PER
                 (UTC) (F)     (DEG/KT/KT) (MB)    (FT/S)
DEVILS ISLAND    0800   38      70/ 10/ 12 1016.2R
PORT WING        0700   38      40/  9/ 12 1016.3
SAXON HARBOR     0700   48     330/  3/  7 1014.2F
$$

LMZ867-665-643>646-190900-
LAKE MICHIGAN

STATION/POSITION TIME  TEMP    WIND        PRES    WAVE
                       AIR SEA DIR/SP/G            HT/PER
                 (UTC) (F)     (DEG/KT/KT) (MB)    (FT/S)
CHAMBERS ISLAND  0700   44      90/  5/  7 1018.6F
NORTHPORT PIER   0800   40      90/  9/ 12 1017.6F
SISTER BAY       0702   43     130/  9/ 13   N/A
KEWAUNEE LAKESHO 0700   43      60/  5/  9 1016.7
SHEBOYGAN LAKESH 0800   44     120/  7/  9 1016.7F
PORT WASHINGTON  0740   45      70/  5/  7 1016.6F
MILWAUKEE LAKESH 0800   44      70/  9/ 10   N/A
KENOSHA   LAKESH 0800   45     100/  9/ 11 1014.6F
$$

TC  - TEMPERATURE IN CELSIUS
VSB - VISIBILITY IN STATUTE MILES
WCI - WIND CHILL INDEX
HX  - HEAT INDEX



USA.gov is the U.S. government's official web portal to all federal, state and local government web resources and services.